This demonstration page uses our WeatherBlox Daily Observations layout. Learn more.

Left ArrowRight Arrow

34.16533, -84.80231

Hourly Observations for June 22, 2022

Temp ( °F °C ) Dew Point ( °F °C ) Humidity (%) Winds ( mph kmh ) Pressure ( in mb ) Visibility ( mi km ) Precip ( " mm )
12:15 am 00:15 Clear 72 22 64 18 78 78 Calm 30.14 1021 10 16 0.00 0.00
12:35 am 00:35 Clear 72 22 63 17 73 73 Calm 30.14 1021 10 16 0.00 0.00
12:55 am 00:55 Clear 70 21 63 17 78 78 Calm 30.14 1021 10 16 0.00 0.00
1:15 am 01:15 Clear 70 21 63 17 78 78 Calm 30.14 1021 10 16 0.00 0.00
1:35 am 01:35 Clear 68 20 64 18 88 88 Calm 30.14 1021 10 16 0.00 0.00
1:55 am 01:55 Clear 68 20 63 17 83 83 Calm 30.12 1020 10 16 0.00 0.00
2:15 am 02:15 Clear 68 20 64 18 88 88 Calm 30.12 1020 10 16 0.00 0.00
2:35 am 02:35 Clear 68 20 64 18 88 88 Calm 30.11 1020 10 16 0.00 0.00
2:55 am 02:55 Clear 68 20 64 18 88 88 Calm 30.11 1020 10 16 0.00 0.00
3:15 am 03:15 Clear 66 19 63 17 88 88 Calm 30.11 1020 10 16 0.00 0.00
3:35 am 03:35 Clear 66 19 63 17 88 88 Calm 30.11 1020 10 16 0.00 0.00
3:55 am 03:55 Clear 66 19 63 17 88 88 Calm 30.10 1019 10 16 0.00 0.00
4:15 am 04:15 Clear 66 19 63 17 88 88 Calm 30.11 1020 10 16 0.00 0.00
4:35 am 04:35 Clear 66 19 63 17 88 88 Calm 30.11 1020 10 16 0.00 0.00
4:55 am 04:55 Clear 64 18 63 17 94 94 Calm 30.12 1020 10 16 0.00 0.00
5:15 am 05:15 Clear 66 19 63 17 88 88 Calm 30.11 1020 10 16 0.00 0.00
5:35 am 05:35 Clear 64 18 63 17 94 94 Calm 30.11 1020 10 16 0.00 0.00
5:55 am 05:55 Clear 64 18 63 17 94 94 Calm 30.12 1020 10 16 0.00 0.00
6:15 am 06:15 Clear 64 18 63 17 94 94 Calm 30.12 1020 10 16 0.00 0.00
6:35 am 06:35 Sunny 64 18 63 17 94 94 Calm 30.12 1020 10 16 0.00 0.00
6:55 am 06:55 Sunny 64 18 63 17 94 94 Calm 30.12 1020 10 16 0.00 0.00
7:15 am 07:15 Sunny 64 18 63 17 94 94 Calm 30.12 1020 10 16 0.00 0.00
7:35 am 07:35 Sunny 66 19 64 18 94 94 Calm 30.12 1020 10 16 0.00 0.00
7:55 am 07:55 Sunny 68 20 64 18 88 88 Calm 30.12 1020 10 16 0.00 0.00
8:15 am 08:15 Sunny 70 21 66 19 88 88 WSW 3 6 30.12 1020 10 16 0.00 0.00
8:35 am 08:35 Sunny 72 22 66 19 83 83 Calm 30.12 1020 10 16 0.00 0.00
8:55 am 08:55 Sunny 73 23 66 19 78 78 Calm 30.11 1020 10 16 0.00 0.00
9:15 am 09:15 Sunny 75 24 66 19 74 74 Calm 30.10 1019 10 16 0.00 0.00
9:35 am 09:35 Sunny 77 25 66 19 69 69 Calm 30.10 1019 10 16 0.00 0.00
9:55 am 09:55 Sunny 81 27 66 19 62 62 VRB 3 6 30.09 1019 10 16 0.00 0.00
10:15 am 10:15 Sunny 82 28 66 19 58 58 Calm 30.09 1019 10 16 0.00 0.00
10:35 am 10:35 Sunny 84 29 66 19 55 55 W 5 7 30.08 1019 N/A 0.00 0.00
10:55 am 10:55 Sunny 86 30 68 20 55 55 VRB 7 11 30.07 1018 N/A 0.00 0.00
11:15 am 11:15 Sunny 88 31 68 20 52 52 VRB 7 11 30.06 1018 10 16 0.00 0.00
11:35 am 11:35 Sunny 90 32 68 20 49 49 VRB 7 11 30.05 1018 10 16 0.00 0.00
11:55 am 11:55 Sunny 90 32 66 19 46 46 NNW 9 15 30.05 1018 8 13 0.00 0.00
12:15 pm 12:15 Sunny 91 33 68 20 46 46 VRB 7 11 30.04 1017 10 16 0.00 0.00
12:35 pm 12:35 Sunny 91 33 68 20 46 46 VRB 6 9 30.04 1017 10 16 0.00 0.00
12:55 pm 12:55 Sunny 91 33 66 19 44 44 WNW 8 13 30.03 1017 10 16 0.00 0.00
1:15 pm 13:15 Sunny 93 34 66 19 41 41 VRB 7 11 30.03 1017 10 16 0.00 0.00
1:35 pm 13:35 Sunny 93 34 68 20 44 44 N 10 17 30.02 1016 10 16 0.00 0.00
1:55 pm 13:55 Hazy 93 34 68 20 44 44 VRB 6 9 30.02 1016 6 10 0.00 0.00
2:15 pm 14:15 Sunny 93 34 66 19 41 41 VRB 6 9 30.00 1016 10 16 0.00 0.00
2:35 pm 14:35 Sunny 95 35 66 19 39 39 N 9 15 29.99 1016 10 16 0.00 0.00
2:55 pm 14:55 Sunny 95 35 64 18 36 36 N 8 13 29.98 1015 10 16 0.00 0.00
3:15 pm 15:15 Sunny 95 35 66 19 39 39 WNW 9 15 29.97 1015 10 16 0.00 0.00
3:35 pm 15:35 Sunny 97 36 64 18 34 34 NW 6 9 29.97 1015 10 16 0.00 0.00
3:55 pm 15:55 Sunny 95 35 66 19 39 39 VRB 7 11 29.96 1015 10 16 0.00 0.00
4:15 pm 16:15 Mostly Sunny 95 35 66 19 39 39 VRB 6 9 29.95 1014 10 16 0.00 0.00
4:35 pm 16:35 Mostly Sunny 97 36 66 19 37 37 VRB 7 11 29.95 1014 10 16 0.00 0.00
4:55 pm 16:55 Partly Cloudy 97 36 64 18 34 34 W 9 15 29.94 1014 10 16 0.00 0.00
5:15 pm 17:15 Partly Cloudy 97 36 66 19 37 37 W 8 13 29.93 1014 10 16 0.00 0.00
5:35 pm 17:35 Mostly Sunny 97 36 64 18 34 34 WNW 9 15 29.93 1014 10 16 0.00 0.00
5:55 pm 17:55 Sunny 97 36 64 18 34 34 VRB 5 7 29.92 1013 10 16 0.00 0.00
6:15 pm 18:15 Sunny 97 36 64 18 34 34 W 9 15 29.91 1013 10 16 0.00 0.00
6:35 pm 18:35 Sunny 97 36 64 18 34 34 WNW 8 13 29.90 1013 10 16 0.00 0.00
6:55 pm 18:55 Sunny 95 35 64 18 36 36 W 10 17 29.90 1013 10 16 0.00 0.00
7:15 pm 19:15 Sunny 95 35 64 18 36 36 W 8 13 29.90 1013 9 14 0.00 0.00
7:35 pm 19:35 Sunny 95 35 64 18 36 36 WNW 6 9 29.91 1013 10 16 0.00 0.00
7:55 pm 19:55 Sunny 93 34 64 18 39 39 WNW 7 11 29.92 1013 10 16 0.00 0.00
8:15 pm 20:15 Sunny 93 34 64 18 39 39 VRB 6 9 29.92 1013 10 16 0.00 0.00
8:35 pm 20:35 Sunny 91 33 64 18 41 41 VRB 6 9 29.92 1013 10 16 0.00 0.00
8:55 pm 20:55 Clear 90 32 64 18 43 43 W 7 11 29.92 1013 10 16 0.00 0.00
9:15 pm 21:15 Clear 90 32 64 18 43 43 VRB 7 11 29.92 1013 10 16 0.00 0.00
9:35 pm 21:35 Mostly Clear 88 31 66 19 49 49 W 7 11 29.92 1013 10 16 0.00 0.00
9:55 pm 21:55 Partly Cloudy 88 31 66 19 49 49 W 6 9 29.92 1013 10 16 0.00 0.00
10:15 pm 22:15 Partly Cloudy 86 30 66 19 52 52 W 5 7 29.93 1013 10 16 0.00 0.00
10:35 pm 22:35 Partly Cloudy 84 29 66 19 55 55 Calm 29.93 1014 10 16 0.00 0.00
10:55 pm 22:55 Mostly Clear 84 29 66 19 55 55 Calm 29.94 1014 10 16 0.00 0.00
11:15 pm 23:15 Mostly Clear 82 28 68 20 62 62 Calm 29.94 1014 10 16 0.00 0.00
11:35 pm 23:35 Mostly Clear 81 27 68 20 66 66 Calm 29.94 1014 10 16 0.00 0.00
11:55 pm 23:55 Clear 81 27 68 20 66 66 Calm 29.94 1014 10 16 0.00 0.00

Powered by AerisWeather